Location: *
(48.8489°N, 2.3218°E)
Time: 12:20:58
(UTC+00:00)

MetOp-A - Pass Details

Date: 23 August 2019
Orbit: 819 x 821 km, 98.6° (Epoch: 19 September)

Event Time Altitude Azimuth Distance (km) Brightness Sun altitude
Exits shadow 20:11:51 - 167° (SSE) 2,595 6.3 -12.6°
Reaches altitude 10° 20:12:19 10° 167° (SSE) 2,412 6.1 -12.7°
Maximum altitude 20:17:41 83° 256° (WSW) 834 4.2 -13.4°
Drops below altitude 10° 20:23:04 10° 344° (NNW) 2,428 7.4 -14.1°
Sets 20:25:26 0° 345° (NNW) 3,365 8.2 -14.5°
